Location: Copper Breaks State Park
(34.1132°N, 99.7492°W)
Time: 03:45:15
(UTC-06:00)

Amateur Radio Satellites - All Passes

Search period start: 23 November 2014 03:15
Search period end: 24 November 2014 03:15
Location: Copper Breaks State Park, 34.1132°N, 99.7492°W

Satellite Date Start Highest point End Downlink Frequencies (MHz)
Time Altitude Azimuth
SO-50 23 Nov 03:36:52 03:39:22 15° 108° (ESE) 03:41:54 436.795
MOZHAYETS 4 23 Nov 03:51:31 03:54:09 15° 67° (ENE) 03:56:49
JUGNU 23 Nov 04:14:24 04:18:25 19° 186° (S) 04:22:26 437.505
SRMSAT 23 Nov 04:18:24 04:22:40 20° 179° (S) 04:26:55 437.500
HORYU 2 23 Nov 04:19:30 04:23:50 50° 286° (WNW) 04:28:11 437.375
YUBILEINY 23 Nov 04:26:59 04:35:07 41° 283° (WNW) 04:43:18 435.215
AO-7 23 Nov 04:31:04 04:39:11 52° 102° (ESE) 04:47:15 29.400- 29.500
JAS-2 23 Nov 04:43:33 04:48:19 19° 90° (E) 04:52:42 435.910
PCSat 23 Nov 04:44:36 04:46:23 12° 47° (NE) 04:48:09 145.827
RS-15 23 Nov 04:54:01 05:01:22 20° 259° (W) 05:08:58 29.354- 29.394
Gurwin Techsat 1B 23 Nov 04:54:59 04:57:25 13° 296° (WNW) 04:59:51 435.225
SO-50 23 Nov 05:15:09 05:19:27 45° 303° (WNW) 05:23:53 436.795
CUBESAT XI-V 23 Nov 05:25:23 05:26:16 11° 64° (ENE) 05:27:09 437.345
MOZHAYETS 4 23 Nov 05:26:38 05:30:58 43° 261° (W) 05:35:22
BEESAT 3 23 Nov 05:49:43 05:53:00 22° 53° (NE) 05:56:14 437.485
CUTE-I 23 Nov 05:57:19 06:01:01 19° 94° (E) 06:04:42 437.470
BEESAT 2 23 Nov 06:02:13 06:05:48 26° 54° (NE) 06:09:21 435.950
JUGNU 23 Nov 06:05:01 06:06:44 11° 196° (SSW) 06:08:28 437.505
SRMSAT 23 Nov 06:07:24 06:11:11 17° 189° (S) 06:14:57 437.500
STRAND 1 23 Nov 06:11:27 06:16:09 37° 71° (ENE) 06:20:52 437.568
PRISM 23 Nov 06:13:12 06:17:21 68° 258° (WSW) 06:21:34 437.425
AIST 2 23 Nov 06:22:22 06:25:45 22° 53° (NE) 06:29:06 435.215
AO-7 23 Nov 06:24:29 06:31:32 32° 298° (WNW) 06:38:36 29.400- 29.500
PCSat 23 Nov 06:25:07 06:30:34 85° 65° (ENE) 06:35:59 145.827
JAS-2 23 Nov 06:26:54 06:33:54 60° 288° (WNW) 06:40:04 435.910
O/OREOS (USA 219) 23 Nov 06:39:10 06:43:35 58° 107° (ESE) 06:47:59 437.305
Cubesat XI-IV 23 Nov 06:53:37 06:58:57 74° 102° (ESE) 07:04:14 437.490
CUBESAT XI-V 23 Nov 06:58:23 07:03:04 69° 259° (W) 07:07:47 437.345
BEESAT 3 23 Nov 07:27:36 07:31:12 28° 248° (WSW) 07:34:45 437.485
ISS 23 Nov 07:28:12 07:31:06 28° 36° (NE) 07:34:01 145.825
CUTE-I 23 Nov 07:36:13 07:41:14 43° 288° (WNW) 07:46:12 437.470
BEESAT 2 23 Nov 07:40:39 07:43:57 23° 249° (WSW) 07:47:13 435.950
STRAND 1 23 Nov 07:51:31 07:55:23 21° 265° (W) 07:59:15 437.568
AIST 1 23 Nov 07:59:17 08:03:40 72° 265° (W) 08:07:58
AIST 2 23 Nov 08:00:39 08:04:22 29° 248° (WSW) 08:08:03 435.215
GONETS M04 23 Nov 08:20:02 08:28:03 42° 88° (E) 08:36:07
O/OREOS (USA 219) 23 Nov 08:21:46 08:23:20 12° 302° (WNW) 08:24:55 437.305
HO-68 23 Nov 08:22:49 08:27:46 20° 94° (E) 08:32:39 435.675
Cubesat XI-IV 23 Nov 08:36:20 08:38:20 12° 297° (WNW) 08:40:20 437.490
CUTE 1.7 & AOD 2 23 Nov 08:41:46 08:44:36 17° 94° (E) 08:47:26 437.475
BRITE-PL 23 Nov 08:49:23 08:52:20 19° 95° (E) 08:55:19 437.365/2234.400
ISS 23 Nov 09:05:01 09:07:38 22° 231° (SW) 09:10:15 145.825
Oscar 11 23 Nov 09:09:55 09:10:46 11° 92° (E) 09:11:37 145.826/435.025
SEEDS 23 Nov 09:17:48 09:21:50 40° 99° (E) 09:25:51 437.485
TIGRISAT 23 Nov 09:23:31 09:23:52 10° 66° (ENE) 09:24:13 435.000
DX 1 23 Nov 09:27:02 09:29:39 16° 94° (E) 09:32:16 434.975-435.025
UNISAT 6 23 Nov 09:33:20 09:35:38 14° 67° (ENE) 09:37:56 437.425
AAUSAT CUBESAT 2 23 Nov 09:40:50 09:45:00 57° 100° (E) 09:49:10 437.432
CANX-2 23 Nov 09:41:15 09:45:33 79° 283° (WNW) 09:49:50 2200.000
DOVE 4 23 Nov 09:45:50 09:49:51 48° 100° (E) 09:54:00 437.250
NANOSAT C BR1 23 Nov 09:48:12 09:50:33 15° 68° (ENE) 09:52:53 145.865
ZACube-1 23 Nov 09:52:46 09:55:06 14° 94° (E) 09:57:27 437.345
COMPASS 1 23 Nov 09:53:54 09:58:10 85° 283° (WNW) 10:02:24 437.405
QB50P1 23 Nov 09:56:58 09:59:56 19° 69° (ENE) 10:02:54 145.935-145.965
ANTELSAT 23 Nov 10:00:06 10:03:49 29° 72° (ENE) 10:07:32 437.575/2403.000
DELFI C3 23 Nov 10:01:47 10:05:40 39° 99° (E) 10:09:33 145.870
AISAT 23 Nov 10:07:51 10:10:04 14° 93° (E) 10:12:16 437.250
HO-68 23 Nov 10:08:47 10:15:52 65° 289° (WNW) 10:22:54 435.675
GOMX 1 23 Nov 10:13:46 10:17:48 53° 285° (WNW) 10:21:55 467.674
CUTE 1.7 & AOD 2 23 Nov 10:16:45 10:20:33 32° 288° (WNW) 10:24:22 437.475
GONETS M04 23 Nov 10:16:53 10:24:48 37° 285° (WNW) 10:32:49
POPSAT HIP 1 23 Nov 10:20:18 10:24:10 35° 73° (ENE) 10:28:03 437.405
BUGSAT 1 23 Nov 10:22:48 10:26:33 31° 72° (ENE) 10:30:18 437.445
FUNcube-1 23 Nov 10:27:18 10:31:14 38° 99° (E) 10:35:14 145.935
BRITE-PL 23 Nov 10:27:26 10:30:51 25° 289° (WNW) 10:34:17 437.365/2234.400
UKube-1 23 Nov 10:29:12 10:33:33 89° 103° (ESE) 10:37:53 .
CUBEBUG 2 23 Nov 10:38:48 10:43:02 77° 102° (ESE) 10:47:22 437.445
Oscar 11 23 Nov 10:42:57 10:47:11 52° 285° (WNW) 10:51:24 145.826/435.025
CINEMA 3 23 Nov 10:44:23 10:48:29 54° 285° (WNW) 10:52:42 145.822/145.860
UWE-3 23 Nov 10:45:27 10:49:41 79° 102° (ESE) 10:54:01 435.000/436.395/437.385
POLYITAN 1 23 Nov 10:51:30 10:55:47 87° 78° (ENE) 11:00:03 437.675
QB50P2 23 Nov 10:54:46 10:59:03 85° 257° (WSW) 11:03:20 145.880/145.840
SEEDS 23 Nov 10:55:01 10:57:17 14° 292° (WNW) 10:59:33 437.485
TIGRISAT 23 Nov 10:55:53 11:00:06 57° 259° (W) 11:04:18 435.000
DX 1 23 Nov 11:02:01 11:05:59 36° 288° (WNW) 11:09:56 434.975-435.025
SHINDAISAT 23 Nov 11:02:41 11:04:20 48° 299° (WNW) 11:06:00 437.305
DUCHIFAT 1 23 Nov 11:02:52 11:07:07 69° 259° (WSW) 11:11:22 145.980
ESTCUBE 1 23 Nov 11:06:30 11:10:10 24° 96° (E) 11:13:47 437.505/2401.250
UNISAT 6 23 Nov 11:08:03 11:12:05 39° 261° (W) 11:16:06 437.425
VELOX 1 23 Nov 11:18:06 11:22:33 86° 284° (WNW) 11:26:57 145.980
AAUSAT CUBESAT 2 23 Nov 11:19:53 11:20:10 10° 294° (WNW) 11:20:26 437.432
NANOSAT C BR1 23 Nov 11:22:05 11:26:04 39° 261° (W) 11:30:04 145.865
DOVE 4 23 Nov 11:26:00 11:27:14 11° 293° (WNW) 11:28:28 437.250
ZACube-1 23 Nov 11:27:41 11:31:34 37° 287° (WNW) 11:35:31 437.345
QB50P1 23 Nov 11:31:50 11:35:35 30° 262° (W) 11:39:21 145.935-145.965
HUMSAT D 23 Nov 11:33:23 11:37:26 53° 285° (WNW) 11:41:32 437.325/437.525
ANTELSAT 23 Nov 11:37:40 11:40:38 18° 265° (W) 11:43:36 437.575/2403.000
DELFI C3 23 Nov 11:38:31 11:40:36 14° 292° (WNW) 11:42:41 145.870
50 SAT 23 Nov 11:42:21 11:46:17 49° 285° (WNW) 11:50:13 437.505
AISAT 23 Nov 11:42:41 11:46:52 42° 287° (WNW) 11:51:01 437.250
POPSAT HIP 1 23 Nov 11:57:34 12:00:09 16° 266° (W) 12:02:44 437.405
BUGSAT 1 23 Nov 11:59:08 12:02:03 18° 265° (W) 12:04:58 437.445
FUNcube-1 23 Nov 12:04:55 12:07:17 15° 292° (WNW) 12:09:40 145.935
CUBEBUG 1 23 Nov 12:06:41 12:11:01 68° 284° (WNW) 12:15:19 437.445
TISAT 1 23 Nov 12:06:48 12:10:18 25° 97° (E) 12:13:46 437.305
SPROUT 23 Nov 12:07:23 12:10:45 22° 96° (E) 12:14:06 437.525
ESTCUBE 1 23 Nov 12:43:10 12:46:57 26° 290° (WNW) 12:50:41 437.505/2401.250
YUBILEINY 23 Nov 12:47:42 12:51:41 14° 65° (ENE) 12:55:38 435.215
CUSAT 1 23 Nov 13:06:28 13:08:32 17° 96° (E) 13:10:25 437.405
ITUPSAT 1 23 Nov 13:08:43 13:11:52 17° 94° (E) 13:15:01 437.325
DANDE 23 Nov 13:19:01 13:21:34 22° 97° (E) 13:23:48 436.750
SWISSCUBE 23 Nov 13:20:08 13:24:08 26° 96° (E) 13:28:06 437.505
Oscar 19 23 Nov 13:28:10 13:33:17 87° 77° (ENE) 13:38:25 437.125/150
TISAT 1 23 Nov 13:42:48 13:45:59 21° 290° (WNW) 13:49:09 437.305
SPROUT 23 Nov 13:43:17 13:46:44 24° 289° (WNW) 13:50:11 437.525
SO-50 23 Nov 13:49:53 13:54:42 57° 59° (ENE) 13:59:30 436.795
BEESAT 23 Nov 13:51:19 13:56:01 53° 100° (E) 14:00:40 436.000
AUBIESAT-1 23 Nov 13:57:38 14:02:35 85° 107° (ESE) 14:07:23 437.475
M-CUBED/EXP-1 PRIME 23 Nov 14:00:48 14:05:45 82° 288° (WNW) 14:10:35 437.505
ITAMSAT 1 23 Nov 14:14:40 14:19:53 87° 257° (WSW) 14:25:08 435.822/435.867
Gurwin Techsat 1B 23 Nov 14:30:05 14:35:21 73° 75° (ENE) 14:40:40 435.225
STARS 23 Nov 14:30:48 14:33:40 17° 95° (E) 14:36:31 437.465
PHONESAT 2.4 23 Nov 14:38:21 14:40:26 14° 141° (SE) 14:42:30 2401.200-2431.200
YUBILEINY 23 Nov 14:41:00 14:49:45 84° 84° (E) 14:58:26 435.215
ITUPSAT 1 23 Nov 14:45:24 14:49:52 40° 288° (WNW) 14:54:19 437.325
RS-15 23 Nov 14:51:57 14:57:37 16° 99° (E) 15:03:14 29.354- 29.394
SWISSCUBE 23 Nov 14:57:53 15:01:53 27° 290° (WNW) 15:05:52 437.505
VERMONT LUNAR 23 Nov 14:59:46 15:03:00 31° 146° (SSE) 15:06:14 437.305
KKS-1 23 Nov 15:04:09 15:08:34 67° 102° (ESE) 15:12:58 437.445
HORYU 2 23 Nov 15:14:11 15:18:37 88° 257° (WSW) 15:23:04 437.375
AO-7 23 Nov 15:25:52 15:33:45 51° 67° (ENE) 15:41:41 29.400- 29.500
BEESAT 23 Nov 15:30:58 15:33:21 14° 295° (WNW) 15:35:44 436.000
SO-50 23 Nov 15:32:15 15:34:45 14° 253° (WSW) 15:37:15 436.795
AUBIESAT-1 23 Nov 15:35:55 15:36:49 11° 302° (WNW) 15:37:43 437.475
MaSat-1 23 Nov 16:05:07 16:08:18 71° 293° (WNW) 16:11:11 437.345
STARS 23 Nov 16:06:15 16:10:12 34° 288° (WNW) 16:14:09 437.465
Gurwin Techsat 1B 23 Nov 16:14:34 16:15:46 11° 269° (W) 16:16:58 435.225
PHONESAT 2.4 23 Nov 16:15:08 16:18:50 82° 154° (SSE) 16:22:34 2401.200-2431.200
JAS-2 23 Nov 16:32:31 16:39:30 45° 69° (ENE) 16:46:52 435.910
VERMONT LUNAR 23 Nov 16:37:50 16:41:23 53° 341° (NNW) 16:44:57 437.305
YUBILEINY 23 Nov 16:40:41 16:45:20 16° 281° (W) 16:49:59 435.215
O/OREOS (USA 219) 23 Nov 16:52:48 16:57:13 59° 69° (ENE) 17:01:38 437.305
RS-15 23 Nov 16:57:14 17:08:16 85° 116° (ESE) 17:19:13 29.354- 29.394
CUTE-I 23 Nov 17:15:37 17:19:44 23° 67° (ENE) 17:23:52 437.470
AO-7 23 Nov 17:19:39 17:26:41 31° 262° (W) 17:33:47 29.400- 29.500
MOZHAYETS 4 23 Nov 17:25:27 17:30:04 59° 100° (E) 17:34:38
PHONESAT 2.4 23 Nov 17:54:28 17:57:53 34° 350° (N) 18:01:18 2401.200-2431.200
PRISM 23 Nov 18:00:58 18:04:20 23° 96° (E) 18:07:40 437.425
Cubesat XI-IV 23 Nov 18:11:51 18:17:14 84° 76° (ENE) 18:22:37 437.490
VERMONT LUNAR 23 Nov 18:17:06 18:20:18 28° 358° (N) 18:23:31 437.305
JAS-2 23 Nov 18:18:00 18:24:31 34° 265° (W) 18:31:26 435.910
STRAND 1 23 Nov 18:26:54 18:30:09 17° 94° (E) 18:33:21 437.568
GONETS M04 23 Nov 18:36:40 18:41:39 16° 66° (ENE) 18:46:36
HO-68 23 Nov 18:52:54 18:53:18 10° 54° (NE) 18:53:41 435.675
CUTE-I 23 Nov 18:54:34 18:59:31 38° 261° (W) 19:04:30 437.470
CUBESAT XI-V 23 Nov 18:59:23 19:03:46 39° 98° (E) 19:08:05 437.345
MOZHAYETS 4 23 Nov 19:05:02 19:06:44 12° 295° (WNW) 19:08:25
RS-15 23 Nov 19:13:15 19:21:58 27° 320° (NW) 19:30:46 29.354- 29.394
PCSat 23 Nov 19:21:42 19:25:22 19° 105° (ESE) 19:29:02 145.827
PHONESAT 2.4 23 Nov 19:33:52 19:37:14 32° 8° (N) 19:40:36 2401.200-2431.200
PRISM 23 Nov 19:36:22 19:39:46 24° 290° (WNW) 19:43:09 437.425
VERMONT LUNAR 23 Nov 19:55:51 19:59:18 41° 15° (NNE) 20:02:46 437.305
BEESAT 2 23 Nov 19:56:29 19:58:08 12° 107° (ESE) 19:59:48 435.950
BRITE-PL 23 Nov 19:56:39 20:00:16 20° 70° (ENE) 20:03:42 437.365/2234.400
STRAND 1 23 Nov 20:04:39 20:09:30 46° 288° (WNW) 20:14:20 437.568
SEEDS 23 Nov 20:07:47 20:10:40 18° 69° (ENE) 20:13:32 437.485
SHINDAISAT 23 Nov 20:14:45 20:16:18 53° 60° (ENE) 20:17:50 437.305
AIST 2 23 Nov 20:20:14 20:21:06 11° 107° (ESE) 20:21:58 435.215
AIST 1 23 Nov 20:24:44 20:29:06 81° 95° (E) 20:33:32
AAUSAT CUBESAT 2 23 Nov 20:29:21 20:32:41 24° 71° (ENE) 20:36:02 437.432
GONETS M04 23 Nov 20:30:42 20:39:35 88° 265° (W) 20:48:21
CANX-2 23 Nov 20:30:52 20:34:52 44° 74° (ENE) 20:38:54 2200.000
HO-68 23 Nov 20:32:33 20:39:38 67° 71° (ENE) 20:46:46 435.675
CUBESAT XI-V 23 Nov 20:37:52 20:40:51 17° 293° (WNW) 20:43:49 437.345
COMPASS 1 23 Nov 20:42:13 20:46:05 39° 74° (ENE) 20:49:59 437.405
DOVE 4 23 Nov 20:48:08 20:52:25 34° 73° (ENE) 20:56:28 437.250
DELFI C3 23 Nov 20:48:26 20:50:56 16° 69° (ENE) 20:53:26 145.870
PCSat 23 Nov 21:03:08 21:08:20 48° 300° (WNW) 21:13:35 145.827
CUTE 1.7 & AOD 2 23 Nov 21:05:40 21:09:52 73° 259° (WSW) 21:14:05 437.475
PHONESAT 2.4 23 Nov 21:12:37 21:16:20 82° 24° (NNE) 21:20:02 2401.200-2431.200
GOMX 1 23 Nov 21:17:43 21:22:42 80° 258° (WSW) 21:27:21 467.674
BEESAT 3 23 Nov 21:18:34 21:22:35 59° 300° (WNW) 21:26:41 437.485
UKube-1 23 Nov 21:20:45 21:24:54 46° 73° (ENE) 21:29:05 .
FUNcube-1 23 Nov 21:20:53 21:23:55 20° 70° (ENE) 21:26:56 145.935
BEESAT 2 23 Nov 21:32:01 21:35:58 46° 302° (WNW) 21:39:59 435.950
BRITE-PL 23 Nov 21:33:38 21:38:31 39° 261° (W) 21:43:05 437.365/2234.400
Oscar 11 23 Nov 21:33:52 21:38:09 73° 76° (ENE) 21:42:27 145.826/435.025
CUBEBUG 2 23 Nov 21:33:59 21:38:01 39° 74° (ENE) 21:41:58 437.445
VERMONT LUNAR 23 Nov 21:34:21 21:37:51 48° 210° (SSW) 21:41:21 437.305
RS-15 23 Nov 21:38:50 21:40:15 10° 355° (N) 21:41:41 29.354- 29.394
UWE-3 23 Nov 21:39:33 21:43:32 39° 74° (ENE) 21:47:28 435.000/436.395/437.385
CINEMA 3 23 Nov 21:42:30 21:47:01 86° 78° (ENE) 21:51:21 145.822/145.860
SEEDS 23 Nov 21:42:37 21:46:16 29° 263° (W) 21:49:56 437.485
DX 1 23 Nov 21:53:32 21:57:54 68° 258° (WSW) 22:02:17 434.975-435.025
AIST 2 23 Nov 21:55:03 21:59:10 55° 301° (WNW) 22:03:23 435.215
ESTCUBE 1 23 Nov 22:03:58 22:06:33 15° 67° (ENE) 22:09:09 437.505/2401.250
AAUSAT CUBESAT 2 23 Nov 22:05:05 22:08:17 21° 265° (W) 22:11:29 437.432
CANX-2 23 Nov 22:09:32 22:11:01 12° 268° (W) 22:12:29 2200.000
VELOX 1 23 Nov 22:12:19 22:16:40 53° 74° (ENE) 22:21:02 145.980
ZACube-1 23 Nov 22:19:58 22:24:13 77° 258° (WSW) 22:28:25 437.345
COMPASS 1 23 Nov 22:20:03 22:21:58 13° 267° (W) 22:23:54 437.405
HUMSAT D 23 Nov 22:21:59 22:26:06 64° 76° (ENE) 22:30:11 437.325/437.525
DELFI C3 23 Nov 22:22:20 22:25:57 31° 262° (W) 22:29:36 145.870
HO-68 23 Nov 22:22:57 22:27:46 19° 266° (W) 22:32:37 435.675
DOVE 4 23 Nov 22:26:53 22:30:11 19° 264° (W) 22:33:22 437.250
50 SAT 23 Nov 22:27:32 22:31:31 61° 76° (ENE) 22:35:30 437.505
GONETS M04 23 Nov 22:31:03 22:35:01 14° 282° (WNW) 22:38:58
AISAT 23 Nov 22:36:52 22:41:21 77° 258° (WSW) 22:45:51 437.250
POLYITAN 1 23 Nov 22:42:18 22:45:18 19° 95° (E) 22:48:19 437.675
QB50P2 23 Nov 22:45:12 22:48:23 21° 96° (E) 22:51:33 145.880/145.840
TIGRISAT 23 Nov 22:51:22 22:55:29 37° 99° (E) 22:59:40 435.000
PHONESAT 2.4 23 Nov 22:52:14 22:54:50 18° 217° (SW) 22:57:25 2401.200-2431.200
DUCHIFAT 1 23 Nov 22:52:39 22:56:07 25° 97° (E) 22:59:34 145.980
FUNcube-1 23 Nov 22:56:27 23:00:06 27° 263° (W) 23:03:42 145.935
TISAT 1 23 Nov 22:57:38 22:59:37 13° 67° (ENE) 23:01:37 437.305
CUBEBUG 1 23 Nov 22:59:07 23:03:30 62° 75° (ENE) 23:07:54 437.445
UKube-1 23 Nov 22:59:29 23:01:16 12° 267° (W) 23:03:03 .
SPROUT 23 Nov 23:00:07 23:01:45 12° 66° (ENE) 23:03:22 437.525
UNISAT 6 23 Nov 23:03:26 23:07:48 53° 100° (E) 23:12:14 437.425
NANOSAT C BR1 23 Nov 23:11:12 23:15:13 42° 99° (E) 23:19:12 145.865
CUBEBUG 2 23 Nov 23:12:41 23:14:50 14° 266° (W) 23:16:59 437.445
UWE-3 23 Nov 23:18:04 23:20:12 14° 266° (W) 23:22:19 435.000/436.395/437.385
QB50P1 23 Nov 23:20:38 23:24:48 56° 100° (E) 23:28:56 145.935-145.965
ANTELSAT 23 Nov 23:31:51 23:36:17 70° 284° (WNW) 23:40:48 437.575/2403.000
ESTCUBE 1 23 Nov 23:38:43 23:43:01 43° 261° (W) 23:47:23 437.505/2401.250
BUGSAT 1 23 Nov 23:44:13 23:48:19 89° 283° (WNW) 23:52:21 437.445
POPSAT HIP 1 23 Nov 23:45:05 23:49:17 71° 284° (WNW) 23:53:28 437.405
CUSAT 1 23 Nov 23:46:20 23:49:55 20° 79° (E) 23:54:14 437.405
RS-15 23 Nov 23:51:51 23:59:29 20° 33° (NNE) 00:07:16 29.354- 29.394
VELOX 1 23 Nov 23:52:12 23:53:31 11° 268° (W) 23:54:50 145.980
DANDE 24 Nov 00:01:16 00:04:57 23° 80° (E) 00:09:31 436.750
ISS 24 Nov 00:06:49 00:10:05 70° 135° (SE) 00:13:21 145.825
ITUPSAT 1 24 Nov 00:13:07 00:15:37 14° 65° (ENE) 00:18:08 437.325
POLYITAN 1 24 Nov 00:17:37 00:21:14 28° 289° (WNW) 00:24:51 437.675
QB50P2 24 Nov 00:20:44 00:24:15 26° 289° (WNW) 00:27:45 145.880/145.840
JUGNU 24 Nov 00:23:46 00:26:47 14° 167° (SSE) 00:29:49 437.505
SWISSCUBE 24 Nov 00:23:52 00:27:24 21° 68° (ENE) 00:30:56 437.505
DUCHIFAT 1 24 Nov 00:28:38 00:31:51 22° 290° (WNW) 00:35:03 145.980
TIGRISAT 24 Nov 00:29:09 00:31:56 17° 292° (WNW) 00:34:45 435.000
TISAT 1 24 Nov 00:30:57 00:35:03 44° 261° (W) 00:39:09 437.305
SPROUT 24 Nov 00:33:09 00:37:21 50° 260° (W) 00:41:34 437.525
UNISAT 6 24 Nov 00:42:26 00:44:08 12° 294° (WNW) 00:45:50 437.425
AUBIESAT-1 24 Nov 00:43:58 00:47:47 59° 70° (ENE) 00:51:58 437.475
M-CUBED/EXP-1 PRIME 24 Nov 00:47:28 00:51:19 73° 71° (ENE) 00:55:33 437.505
NANOSAT C BR1 24 Nov 00:48:42 00:50:42 13° 293° (WNW) 00:52:42 145.865
BEESAT 24 Nov 00:54:24 00:58:50 40° 72° (ENE) 01:03:19 436.000
QB50P1 24 Nov 00:59:52 01:00:10 10° 295° (WNW) 01:00:28 145.935-145.965
STARS 24 Nov 01:27:21 01:27:48 10° 65° (ENE) 01:28:15 437.465
CUSAT 1 24 Nov 01:28:25 01:32:53 39° 264° (W) 01:38:42 437.405
Oscar 19 24 Nov 01:43:44 01:48:37 42° 99° (E) 01:53:29 437.125/150
DANDE 24 Nov 01:44:09 01:48:17 32° 264° (W) 01:53:37 436.750
YUBILEINY 24 Nov 01:44:11 01:49:40 19° 80° (E) 01:55:08 435.215
ISS 24 Nov 01:45:20 01:47:02 13° 331° (NNW) 01:48:45 145.825
MaSat-1 24 Nov 01:47:36 01:49:54 54° 67° (ENE) 01:52:17 437.345
ITUPSAT 1 24 Nov 01:48:21 01:53:01 52° 260° (W) 01:57:44 437.325
KKS-1 24 Nov 01:59:00 02:03:07 38° 72° (ENE) 02:07:14 437.445
SWISSCUBE 24 Nov 02:00:38 02:04:59 35° 262° (W) 02:09:22 437.505
RS-15 24 Nov 02:03:02 02:14:19 70° 59° (ENE) 02:26:04 29.354- 29.394
JUGNU 24 Nov 02:10:56 02:15:07 20° 177° (S) 02:19:19 437.505
SRMSAT 24 Nov 02:17:45 02:21:21 16° 170° (S) 02:24:56 437.500
ITAMSAT 1 24 Nov 02:31:36 02:36:34 46° 100° (E) 02:41:29 435.822/435.867
BEESAT 24 Nov 02:33:41 02:36:48 17° 266° (W) 02:39:56 436.000
Gurwin Techsat 1B 24 Nov 02:50:24 02:55:22 39° 99° (E) 03:00:17 435.225
STARS 24 Nov 02:59:21 03:03:43 62° 259° (W) 03:08:05 437.465
